This is the latest recevied weather packets stored in our database for station/object KGRR-WX. If no packets are shown the sender has not sent any weather packets the latest 10 day(s).
| Time | Temp. | Humidity | Pressure | Rain* | Wind** | Luminosity | Snow |
|---|---|---|---|---|---|---|---|
| 1788637507 | 22.78° C | 73% | 986.6 hPa | 0 mm | - | - | - |
| 1788636607 | 22.22° C | 73% | 986.6 hPa | 0 mm | - | - | - |
| 1788635707 | 25° C | 73% | 986.8 hPa | 0 mm | - | - | - |
| 1788634808 | 23.89° C | 73% | 986.8 hPa | 0 mm | - | - | - |
| 1788633907 | 23.33° C | 89% | 987.3 hPa | 0 mm | - | - | - |
| 1788633007 | 23.33° C | 78% | 987.5 hPa | 0 mm | - | - | - |
| 1788632106 | 23.33° C | 78% | 987.5 hPa | 0 mm | - | - | - |
| 1788631208 | 23.33° C | 78% | 987.5 hPa | 0 mm | - | - | - |
| 1788630307 | 22.78° C | 89% | 987.5 hPa | 0.51 mm | - | - | - |
| 1788629408 | 21.67° C | 71% | 986.8 hPa | 0.51 mm | - | - | - |
| 1788628507 | 23.89° C | 71% | 987.1 hPa | 0 mm | - | - | - |
| 1788627610 | 23.33° C | 71% | 987.1 hPa | 0 mm | - | - | - |
| 1788626707 | 23.33° C | 83% | 987.5 hPa | 0 mm | - | - | - |
| 1788625808 | 22.78° C | 77% | 986.4 hPa | 0 mm | - | - | - |
| 1788624905 | 22.22° C | 77% | 986.4 hPa | 0 mm | - | - | - |
| 1788624007 | 22.78° C | 77% | 986.4 hPa | 0 mm | - | - | - |
| 1788623107 | 22.22° C | 82% | 987.8 hPa | 0 mm | - | - | - |
| 1788622207 | 21.67° C | 87% | 986.5 hPa | 0 mm | - | - | - |
| 1788621307 | 20.56° C | 87% | 986.4 hPa | 0 mm | - | - | - |
| 1788620407 | 20.56° C | 87% | 986.4 hPa | 0 mm | - | - | - |
| 1788619517 | 20° C | 88% | 987.1 hPa | 0 mm | - | - | - |
| 1788618604 | 20° C | 88% | 986.6 hPa | 0 mm | - | - | - |
| 1788617707 | 20° C | 88% | 986.5 hPa | 0 mm | - | - | - |
| 1788616808 | 20° C | 88% | 986.5 hPa | 0 mm | - | - | - |
| 1788615907 | 20° C | 94% | 985.7 hPa | 0 mm | - | - | - |
* Rain latest hour (hover to see other rain measurements)
** Current wind speed in m/s (hover to see current wind gust speed)